Atka, AK

8:09 AM HST on December 02, 2016 (GMT -1000)
Atka

Weather History for PAAK - October, 2013

Change the Weather History Date:

Friday, October 4, 2013

  Actual Average (PADK) Record (PADK)
Temperature  
Mean Temperature 48 °F -  
Max Temperature 53 °F 49 °F 57 °F (2015)
Min Temperature 44 °F 40 °F 32 °F (1961)
Degree Days  
Heating Degree Days 16    
Moisture  
Dew Point 43 °F    
Average Humidity 83    
Maximum Humidity 93    
Minimum Humidity 66    
Precipitation  
Precipitation 0.00 in - - ()
Sea Level Pressure  
Sea Level Pressure 30.09 in    
Wind  
Wind Speed 11 mph (WSW)    
Max Wind Speed 24 mph    
Max Gust Speed 30 mph    
Visibility 9 miles    
Events      
Averages and records for this station are not official NWS values.
T = Trace of Precipitation, MM = Missing Value Source: NWS Daily Summary

Daily Weather History Graph

Daily Weather History Graph

Search for Another Location

Airport or City:

Trip Planner

Search our weather history database for the weather conditions in past years. The results will help you decide how hot, cold, wet, or windy it might be!

Date:

Astronomy

Oct. 04, 2013 Rise Set
Actual Time 8:43 AM HDT 8:05 PM HDT
Civil Twilight 8:09 AM HDT 8:39 PM HDT
Nautical Twilight 7:30 AM HDT 9:18 PM HDT
Astronomical Twilight 6:50 AM HDT 9:58 PM HDT
Moon 8:37 AM HDT (10/4) 7:50 PM HDT (10/4)
Length of Visible Light 12h 29m
Length of Day
11h 22m
Waning Crescent, 0% of the Moon is Illuminated
Oct 4
Waning Crescent
Oct 4
New
Oct 11
First Quarter
Oct 18
Full
Oct 26
Last Quarter

Hourly Weather History & Observations

Time (HDT) Temp. Windchill Dew Point Humidity Pressure Visibility Wind Dir Wind Speed Gust Speed Precip Events Conditions
12:16 AM 46.4 °F 41.5 °F 35.6 °F 66% 30.30 in 10.0 mi WNW 10.4 mph - N/A   Overcast
12:36 AM 44.6 °F 39.7 °F 37.4 °F 76% 30.30 in 10.0 mi WNW 9.2 mph - N/A   Overcast
12:56 AM 44.6 °F 39.7 °F 37.4 °F 76% 30.30 in 10.0 mi WNW 9.2 mph - N/A   Overcast
1:16 AM 46.4 °F 39.8 °F 39.2 °F 76% 30.30 in 10.0 mi WNW 16.1 mph - N/A   Overcast
1:36 AM 44.6 °F 38.8 °F 37.4 °F 76% 30.30 in 10.0 mi WNW 11.5 mph - N/A   Overcast
1:56 AM 44.6 °F 38.4 °F 37.4 °F 76% 30.30 in 10.0 mi WNW 12.7 mph - N/A   Overcast
2:16 AM 44.6 °F 38.4 °F 39.2 °F 81% 30.30 in 10.0 mi WNW 12.7 mph - N/A   Overcast
2:36 AM 46.4 °F 40.7 °F 37.4 °F 71% 30.29 in 10.0 mi WNW 12.7 mph 17.3 mph N/A   Overcast
2:56 AM 46.4 °F 41.5 °F 39.2 °F 76% 30.30 in 10.0 mi WNW 10.4 mph - N/A   Overcast
3:16 AM 46.4 °F 42.4 °F 39.2 °F 76% 30.29 in 10.0 mi WNW 8.1 mph - N/A   Overcast
3:36 AM 44.6 °F 40.7 °F 39.2 °F 81% 30.29 in 10.0 mi WNW 6.9 mph - N/A   Overcast
3:56 AM 44.6 °F 42.2 °F 39.2 °F 81% 30.28 in 10.0 mi WNW 4.6 mph - N/A   Overcast
4:16 AM 44.6 °F 40.7 °F 39.2 °F 81% 30.28 in 10.0 mi West 6.9 mph - N/A   Overcast
4:36 AM 44.6 °F - 39.2 °F 81% 30.27 in 10.0 mi Calm Calm - N/A   Overcast
4:56 AM 44.6 °F 43.1 °F 39.2 °F 81% 30.26 in 10.0 mi West 3.5 mph - N/A   Overcast
5:16 AM 44.6 °F 41.4 °F 37.4 °F 76% 30.27 in 10.0 mi West 5.8 mph - N/A   Overcast
5:36 AM 44.6 °F 42.2 °F 37.4 °F 76% 30.27 in 10.0 mi WNW 4.6 mph - N/A   Overcast
5:56 AM 44.6 °F 43.1 °F 37.4 °F 76% 30.27 in 10.0 mi WNW 3.5 mph - N/A   Overcast
6:16 AM 44.6 °F - 37.4 °F 76% 30.26 in 10.0 mi Calm Calm - N/A   Overcast
6:36 AM 44.6 °F 42.2 °F 37.4 °F 76% 30.26 in 10.0 mi West 4.6 mph - N/A   Overcast
6:56 AM 44.6 °F - 39.2 °F 81% 30.24 in 10.0 mi Calm Calm - N/A   Overcast
7:16 AM 44.6 °F - 37.4 °F 76% 30.24 in 10.0 mi Calm Calm - N/A   Overcast
7:36 AM 44.6 °F 40.2 °F 39.2 °F 81% 30.22 in 10.0 mi SSW 8.1 mph - N/A   Overcast
7:56 AM 44.6 °F 40.7 °F 39.2 °F 81% 30.21 in 10.0 mi SSW 6.9 mph - N/A   Overcast
8:16 AM 44.6 °F 40.2 °F 41.0 °F 87% 30.21 in 10.0 mi SW 8.1 mph - N/A   Overcast
8:36 AM 46.4 °F 42.9 °F 41.0 °F 81% 30.20 in 10.0 mi SW 6.9 mph - N/A   Overcast
8:56 AM 46.4 °F 41.5 °F 42.8 °F 87% 30.19 in 10.0 mi SW 10.4 mph 16.1 mph N/A   Overcast
9:16 AM 46.4 °F 40.7 °F 42.8 °F 87% 30.19 in 10.0 mi SW 12.7 mph - N/A   Overcast
9:36 AM 46.4 °F 40.1 °F 42.8 °F 87% 30.19 in 10.0 mi SSW 15.0 mph - N/A   Overcast
9:56 AM 46.4 °F 42.4 °F 42.8 °F 87% 30.19 in 9.0 mi SW 8.1 mph 18.4 mph N/A   Overcast
10:16 AM 46.4 °F 41.5 °F 42.8 °F 87% 30.18 in 10.0 mi SSW 10.4 mph - N/A   Overcast
10:36 AM 46.4 °F 41.5 °F 42.8 °F 87% 30.17 in 10.0 mi SW 10.4 mph - N/A   Overcast
10:56 AM 48.2 °F - 44.6 °F 87% 30.17 in 7.0 mi SSW 8.1 mph - N/A   Overcast
11:16 AM 48.2 °F - 44.6 °F 87% 30.16 in 8.0 mi SSW 5.8 mph - N/A   Overcast
11:36 AM 48.2 °F - 42.8 °F 82% 30.14 in 10.0 mi SSW 8.1 mph - N/A   Overcast
11:56 AM 48.2 °F - 44.6 °F 87% 30.13 in 10.0 mi SW 10.4 mph - N/A   Overcast
12:16 PM 48.2 °F - 44.6 °F 87% 30.12 in 8.0 mi SSW 11.5 mph 19.6 mph N/A   Overcast
12:36 PM 48.2 °F - 44.6 °F 87% 30.10 in 5.0 mi SW 17.3 mph 20.7 mph N/A   Overcast
12:56 PM 48.2 °F - 44.6 °F 87% 30.09 in 7.0 mi SW 16.1 mph 23.0 mph N/A   Overcast
1:16 PM 48.2 °F - 44.6 °F 87% 30.08 in 4.0 mi SW 18.4 mph 23.0 mph N/A   Overcast
1:36 PM 48.2 °F - 44.6 °F 87% 30.07 in 4.0 mi SW 20.7 mph 24.2 mph N/A   Overcast
1:56 PM 48.2 °F - 44.6 °F 87% 30.05 in 6.0 mi SSW 20.7 mph 24.2 mph N/A   Overcast
2:16 PM 48.2 °F - 44.6 °F 87% 30.05 in 4.0 mi SW 21.9 mph 29.9 mph N/A   Overcast
2:36 PM 48.2 °F - 44.6 °F 87% 30.03 in 10.0 mi SW 24.2 mph 29.9 mph N/A   Overcast
2:56 PM 48.2 °F - 44.6 °F 87% 30.02 in 3.0 mi SSW 24.2 mph 29.9 mph N/A   Overcast
3:16 PM 48.2 °F - 44.6 °F 87% 30.01 in 8.0 mi SW 19.6 mph 28.8 mph N/A   Overcast
3:36 PM 50.0 °F - 44.6 °F 82% 29.99 in 8.0 mi SW 19.6 mph 24.2 mph N/A   Mostly Cloudy
3:56 PM 50.0 °F - 44.6 °F 82% 29.97 in 8.0 mi SW 17.3 mph 25.3 mph N/A   Partly Cloudy
4:16 PM 50.0 °F - 44.6 °F 82% 29.97 in 7.0 mi SW 20.7 mph 26.5 mph N/A   Mostly Cloudy
4:36 PM 50.0 °F - 46.4 °F 87% 29.96 in 9.0 mi SW 20.7 mph - N/A   Overcast
4:56 PM 48.2 °F - 46.4 °F 93% 29.94 in 5.0 mi SSW 20.7 mph 28.8 mph N/A   Overcast
5:16 PM 50.0 °F - 46.4 °F 87% 29.94 in 10.0 mi SW 16.1 mph 24.2 mph N/A   Overcast
5:36 PM 50.0 °F - 46.4 °F 87% 29.94 in 10.0 mi SW 15.0 mph 24.2 mph N/A   Overcast
5:56 PM 51.8 °F - 46.4 °F 82% 29.92 in 10.0 mi SW 15.0 mph 23.0 mph N/A   Mostly Cloudy
6:16 PM 51.8 °F - 46.4 °F 82% 29.90 in 10.0 mi SW 11.5 mph 18.4 mph N/A   Mostly Cloudy
6:36 PM 51.8 °F - 46.4 °F 82% 29.89 in 9.0 mi SW 13.8 mph 21.9 mph N/A   Mostly Cloudy
6:56 PM 51.8 °F - 46.4 °F 82% 29.90 in 10.0 mi SSW 18.4 mph 23.0 mph N/A   Mostly Cloudy
7:16 PM 51.8 °F - 46.4 °F 82% 29.88 in 10.0 mi SW 12.7 mph - N/A   Overcast
7:36 PM 51.8 °F - 46.4 °F 82% 29.86 in 10.0 mi SSW 16.1 mph 21.9 mph N/A   Overcast
7:56 PM 51.8 °F - 46.4 °F 82% 29.86 in 7.0 mi SSW 17.3 mph 21.9 mph N/A   Overcast
8:16 PM 51.8 °F - 46.4 °F 82% 29.84 in 5.0 mi SSW 12.7 mph 21.9 mph N/A   Overcast
8:36 PM 50.0 °F - 46.4 °F 87% 29.85 in 9.0 mi SW 16.1 mph - N/A   Overcast
8:56 PM 51.8 °F - 46.4 °F 82% 29.84 in 10.0 mi SW 12.7 mph - N/A   Overcast
9:16 PM 51.8 °F - 46.4 °F 82% 29.85 in 10.0 mi SW 16.1 mph - N/A   Overcast
9:36 PM 51.8 °F - 48.2 °F 88% 29.84 in 8.0 mi WSW 6.9 mph - N/A   Overcast
9:56 PM 53.6 °F - 48.2 °F 82% 29.84 in 10.0 mi SW 4.6 mph - N/A   Overcast
10:16 PM 53.6 °F - 48.2 °F 82% 29.83 in 10.0 mi NW 6.9 mph - N/A   Overcast
10:36 PM 51.8 °F - 46.4 °F 82% 29.82 in 10.0 mi NW 9.2 mph - N/A   Overcast
10:56 PM 51.8 °F - 48.2 °F 88% 29.82 in 10.0 mi Calm Calm - N/A   Overcast
11:16 PM 51.8 °F - 48.2 °F 88% 29.83 in 10.0 mi WNW 5.8 mph - N/A   Overcast
11:36 PM 51.8 °F - 48.2 °F 88% 29.83 in 10.0 mi WNW 9.2 mph - N/A   Overcast
11:56 PM 53.6 °F - 48.2 °F 82% 29.83 in 10.0 mi West 12.7 mph 17.3 mph N/A   Overcast